Regional Weather Roundup
Issued by NWS

Home | Current Version | Previous Version | Text Only | Print | Product List | Glossary Off
Versions: 1 2 3 4 5 6 7 8 9 10 11 12 13 14 15 16 17 18 19 20 21 22 23 24 25 26 27 28 29 30 31 32 33 34 35 36 37 38 39 40 41 42 43 44 45 46 47 48 49 50

593
ASUS43 KDMX 161406
RWRIA

WEATHER ROUNDUP FOR IOWA
NATIONAL WEATHER SERVICE DES MOINES IA
800 AM CST SAT DEC 16 2017

NOTE: "FAIR" INDICATES FEW OR NO CLOUDS BELOW 12,000 FEET WITH NO
SIGNIFICANT WEATHER AND/OR OBSTRUCTIONS TO VISIBILITY.

* - THESE STATIONS ARE NOT NWS STATIONS...THUS NOT UNDER NWS
QUALITY CONTROL.  THEY ALSO DO NOT REPORT WEATHER SUCH
AS PRECIPITATION OR FOG.

IAZ001>003-012>014-020>022-031>034-043>046-161500-
   NORTHWEST IOWA

CITY           SKY/WX    TMP DP  RH WIND       PRES   REMARKS
CARROLL *      CLOUDY    30  21  69 VRB3      29.76R
CHEROKEE *     CLOUDY    22  20  92 CALM      29.76R
DENISON *      CLOUDY    28  21  74 CALM      29.78R
LE MARS *      CLOUDY    25  23  93 CALM      29.76R
ORANGE CITY *  CLOUDY    27  25  93 CALM      29.75R
SHELDON *      CLOUDY    21  19  93 CALM      29.73R
SIOUX CITY     CLOUDY    22  17  81 CALM      29.77R
SPENCER        CLOUDY    23  20  88 NW3       29.74R
STORM LAKE *   CLOUDY    30  21  69 NW13      29.73S WCI  20
$$

IAZ055>058-069>071-079>083-090>094-161500-
   SOUTHWEST IOWA

CITY           SKY/WX    TMP DP  RH WIND       PRES   REMARKS
ATLANTIC *     CLOUDY    25  21  86 CALM      29.79R
AUDUBON *      CLOUDY    27  21  80 CALM      29.78R
CLARINDA *     CLEAR     25  21  86 SW6       29.82S WCI  18
COUNCIL BLFS * CLOUDY    34  23  64 SW7       29.78R WCI  28
CRESTON *      CLOUDY    30  23  74 SW7       29.80R WCI  23
HARLAN  *      CLOUDY    23  19  86 S3        29.81R
LAMONI         CLOUDY    32  24  72 S8        29.81R WCI  25
RED OAK *      CLOUDY    27  23  86 CALM      29.80R
SHENANDOAH *   CLOUDY    30  23  74 SW6       29.81R WCI  24
$$

IAZ047>049-059>061-072>074-084-161500-
   CENTRAL IOWA

CITY           SKY/WX    TMP DP  RH WIND       PRES   REMARKS
AMES           CLOUDY    28  23  81 SW6       29.76S WCI  22
ANKENY *       CLOUDY    34  23  64 CALM      29.79R
BOONE *        CLOUDY    32  23  69 W7        29.75S WCI  26
CHARITON *     CLEAR     34  25  69 SW8       29.79S WCI  27
DES MOINES     PTCLDY    34  24  67 SW9       29.78S WCI  27
GRINNELL*      CLOUDY    32  25  75 SW12      29.78S WCI  23
KNOXVILLE *    CLEAR     36  25  64 SW12      29.77F WCI  27
MARSHALLTOWN   CLOUDY    29  23  78 SW6       29.76R WCI  23
NEWTON *       CLOUDY    32  23  69 SW7       29.78S WCI  26
PELLA *        CLOUDY    36  25  65 SW6       29.80R WCI  31
PERRY *          N/A     30  20  65 CALM      29.76R
$$

IAZ004>006-015-016-023>025-035-036-161500-
   NORTH CENTRAL IOWA

CITY           SKY/WX    TMP DP  RH WIND       PRES   REMARKS
ALGONA *       CLOUDY    25  25 100 W6        29.74R WCI  18
CLARION *      CLOUDY    21  21 100 S7        29.75R WCI  13
ESTHERVILLE    CLOUDY    25  23  92 W8        29.74R WCI  16
FORT DODGE *   CLOUDY    28  22  78 SW5       29.75R WCI  23
MASON CITY     CLOUDY    26  21  81 W8        29.74R WCI  18
FOREST CITY *    N/A     23  19  86 CALM      29.74R
WEBSTER CITY * CLOUDY    25  19  80 SW7       29.74R WCI  17
IOWA FALLS *     N/A     28  23  80 SW6       29.75R WCI  22
$$

IAZ007>011-017>019-026>030-037>042-050>054-066-161500-
   NORTHEAST IOWA

CITY           SKY/WX    TMP DP  RH WIND       PRES   REMARKS
CEDAR RAPIDS   CLOUDY    27  22  81 S6        29.78R WCI  20
CHARLES CITY * CLOUDY    25  23  93 CALM      29.75R
CLINTON *      CLOUDY    28  23  81 S9        29.82R WCI  19
DECORAH *      CLOUDY    28  23  80 CALM      29.75R
DUBUQUE        CLOUDY    25  21  85 SW9       29.78R WCI  15
MONTICELLO *   CLOUDY    28  23  80 S3        29.79R
OELWEIN *      CLOUDY    23  23 100 S6        29.76R WCI  16
WATERLOO       CLOUDY    27  21  78 S5        29.76R WCI  22
$$

IAZ064-065-067-068-078-161500-
   EAST CENTRAL IOWA

CITY           SKY/WX    TMP DP  RH WIND       PRES   REMARKS
DAVENPORT      CLEAR     33  24  69 SW8       29.84R WCI  26
IOWA CITY      CLOUDY    27  22  81 CALM      29.82R
MT. PLEASANT * CLEAR     32  24  71 S12       29.83R WCI  23
MUSCATINE *    CLEAR     34  25  69 S8        29.83R WCI  27
QUAD CITIES    CLEAR     33  24  69 SW5       29.82R WCI  29
$$

IAZ062-063-075>077-085>089-095>099-161500-
   SOUTHEAST IOWA

CITY           SKY/WX    TMP DP  RH WIND       PRES   REMARKS
BURLINGTON     CLEAR     34  26  72 SW12      29.83R WCI  25
FAIRFIELD *    CLEAR     32  23  69 SW10      29.81R WCI  24
FORT MADISON * CLEAR     36  27  69 SW9       29.84S WCI  29
KEOKUK *       CLEAR     34  25  69 SW14      29.84S WCI  24
OSKALOOSA *      N/A     33  25  74 SW9       29.80S WCI  25
OTTUMWA        CLEAR     37  24  59 SW10      29.80R WCI  30
WASHINGTON *   CLEAR     34  27  75 SW12      29.82R WCI  25
$$

ABBREVIATIONS USED IN REMARKS
   TC - TEMPERATURES IN CELSIUS
  WCI - WIND CHILL INDEX
   HX - HEAT INDEX
  VSB - VISIBILITY
$$





USA.gov is the U.S. government's official web portal to all federal, state and local government web resources and services.